Tracking 25405 objects as of 27-Jan-2022
HD Live streaming from Space Station
objects crossing your sky now

STARLINK-1304

Track STARLINK-1304 now!
10-day predictions
STARLINK-1304 is classified as:


NORAD ID: 45376
Int'l Code: 2020-019S
Perigee: 553.4 km
Apogee: 555.4 km
Inclination: 53.1 °
Period: 95.6 minutes
Semi major axis: 6925 km
RCS: Unknown
Launch date: March 18, 2020
Source: United States (US)
Launch site: AIR FORCE EASTERN TEST RANGE (AFETR)
aabbcc
Your satellite tracking list
Your tracking list is empty




NASA's NSSDC Master Catalog

Two Line Element Set (TLE):
1 45376U 20019S   22026.50702999  .00000485  00000-0  51468-4 0  9995
2 45376  53.0557  74.6765 0001449  74.1799 285.9350 15.06390429103164
Source of the keplerian elements: AFSPC